Regional Weather Roundup
Issued by NWS

Home | Current Version | Previous Version | Graphics & Text | Print | Product List | Glossary On
Versions: 1 2 3 4 5 6 7 8 9 10 11 12 13 14 15 16 17 18 19 20 21 22 23 24 25 26 27 28 29 30 31 32 33 34 35 36 37 38 39 40 41 42 43 44 45 46 47 48 49 50
000
ASUS43 KOAX 311010
RWRNE

WEATHER ROUNDUP FOR NEBRASKA
NATIONAL WEATHER SERVICE OMAHA NE
400 AM CST SAT JAN 31 2015

NOTES: SATELLITE DATA IS BEING USED TO AUGMENT CLOUD COVER ABOVE
       12000 FEET.
       "FAIR" INDICATES FEW OR NO CLOUDS BELOW 12,000 FEET WITH NO
       SIGNIFICANT WEATHER AND/OR OBSTRUCTIONS TO VISIBILITY.

  * THESE STATIONS DO NOT REPORT WEATHER SUCH AS RAIN...SNOW OR FOG.

NEZ001>004-019>022-054>056-311100-
NEBRASKA PANHANDLE

CITY           SKY/WX    TMP DP  RH WIND       PRES   REMARKS
SCOTTSBLUFF    CLOUDY    33  26  75 NW3       29.99F
ALLIANCE       MOCLDY    29  26  89 N5        29.98F WCI  24
CHADRON        CLOUDY    27  24  89 CALM      30.02F
KIMBALL        CLOUDY    33  27  79 NW7       29.94F WCI  27
SIDNEY         CLOUDY    32  28  85 N8        29.97F WCI  25
$$

NEZ057>060-069>072-079>082-311100-
SOUTHWEST NEBRASKA

CITY           SKY/WX    TMP DP  RH WIND       PRES   REMARKS
NORTH PLATTE   CLOUDY    34  32  92 SE7       30.03F WCI  28
IMPERIAL       CLOUDY    34  32  92 SE7       29.99F WCI  28
LEXINGTON      FLURRIES  34  32  93 S9        30.06F WCI  27
MCCOOK         CLOUDY    34  32  92 SE5       30.04F WCI  30
OGALLALA       CLOUDY    35  33  92 E5        29.99F WCI  31
$$

NEZ005>010-023>029-035>040-094-311100-
NORTH CENTRAL NEBRASKA

CITY           SKY/WX    TMP DP  RH WIND       PRES   REMARKS
VALENTINE      CLOUDY    28  25  88 NE3       30.04F
AINSWORTH      CLOUDY    29  28  93 CALM      30.05S
BROKEN BOW     CLOUDY    36  32  85 S8        30.06F WCI  30
O`NEILL        CLOUDY    33  32  93 CALM      30.08S
ORD            CLOUDY    35  31  85 S3        30.08F
THEDFORD       CLOUDY    32  32  99 CALM      30.03F
$$

NEZ041-046>049-061>064-073>077-083>087-311100-
SOUTH CENTRAL NEBRASKA

CITY           SKY/WX    TMP DP  RH WIND       PRES   REMARKS
GRAND ISLAND   CLOUDY    35  32  88 S12       30.13F WCI  27
AURORA         CLOUDY    34  33  94 S10       30.13F WCI  26
HASTINGS       FLURRIES  33  31  92 S8        30.11F WCI  26
HEBRON         LGT RAIN  34  32  91 S10       30.17F WCI  26
HOLDREGE       DRIZZLE   33  32  96 S12       30.08F WCI  24
KEARNEY *      CLOUDY    34  30  86 S12       30.10S WCI  25
YORK           CLOUDY    36  32  87 SW9       30.15F WCI  29
$$

NEZ011>018-030>034-042>045-311100-
NORTHEAST NEBRASKA

CITY           SKY/WX    TMP DP  RH WIND       PRES   REMARKS
NORFOLK        CLOUDY    35  32  88 S8        30.11F WCI  29
ALBION         CLOUDY    36  31  83 S6        30.11F WCI  31
BLAIR          CLOUDY    36  31  81 S9        30.16F WCI  29
COLUMBUS *     CLOUDY    37  30  75 SW10      30.15F WCI  30
FREMONT        CLOUDY    38  33  84 SW8       30.17F WCI  32
TEKAMAH        CLOUDY    32  28  85 S10       30.16F WCI  24
WAYNE          CLOUDY    35  31  87 S10       30.12F WCI  27
$$

NEZ050>053-065>068-078-088>093-311100-
SOUTHEAST NEBRASKA

CITY           SKY/WX    TMP DP  RH WIND       PRES   REMARKS
LINCOLN        CLOUDY    37  33  85 SW10      30.19F WCI  30
OMAHA EPPLEY   CLOUDY    33  27  78 SE9       30.19F WCI  25
BEATRICE       DRIZZLE   35  34  97 S8        30.19F WCI  28
FALLS CITY     LGT RAIN  37  34  89 S6        30.24F WCI  32
NEBRASKA CITY  CLOUDY    37  33  84 SW14      30.20F WCI  28
PLATTSMOUTH    CLOUDY    35  30  81 S6        30.19F WCI  30
$$

NEZ044-045-051>053-067-311100-
OMAHA AREA

CITY           SKY/WX    TMP DP  RH WIND       PRES   REMARKS
OMAHA EPPLEY   CLOUDY    33  27  78 SE9       30.19F WCI  25
BLAIR          CLOUDY    36  31  81 S9        30.16F WCI  29
FREMONT        CLOUDY    38  33  84 SW8       30.17F WCI  32
MILLARD        CLOUDY    35  29  80 SE3       30.19F
OFFUTT AFB     CLOUDY    32  26  80 E5        30.19F WCI  27
PLATTSMOUTH    CLOUDY    35  30  81 S6        30.19F WCI  30
WAHOO          CLOUDY    38  32  79 SW9       30.17F WCI  31
$$


USA.gov is the U.S. government's official web portal to all federal, state and local government web resources and services.